User: anonymous   Login
Location: Unspecified
(0.0000°N, 0.0000°E)
Time: 23:50:44
(UTC+00:00)
Language:

STARLINK-5614 - Orbit

View from above orbital plane
View from above orbital plane
View from above satellite
View from above satellite

Ground track
Ground track

The orbit is defined by the following mean orbital elements,

1 55756U          26145.45604242 +.00000000 +00000-0 -15293-4 0 00001
2 55756  70.0007  50.7170 0002619 266.9499  93.1361 14.98327766    03
Epoch (UTC): 25 May 2026 10:56:42
Eccentricity: 0.0002619
inclination: 70.0007°
perigee height: 570 km
apogee height: 574 km
right ascension of ascending node: 50.7170°
argument of perigee: 266.9499°
revolutions per day: 14.98327766
mean anomaly at epoch: 93.1361°

The dashed part of the orbit path shows where the satellite is in the earth's shadow,  

DLR